Simultaneous Nadir Overpasses (SNOs) Predictions

Prediction of SNOs between GOES-17 and LANDSAT-8 Satellite Orbit:

Table of predicted SNOs for the next 14.0 days since TLE Epoch: 1/8/2023
Index Date Time (GOES-17) GOES-17 Lat,Lon LANDSAT-8 Lat,Lon Distance(km) Time Diff (sec)
1 01/09/2023 07:05:03 -0.01,-137.32 0.80,-133.53 431.10 80
2 01/09/2023 19:26:17 0.01,-137.33 0.32,-138.68 154.51 80
3 01/11/2023 19:16:45 0.01,-137.32 -0.34,-135.73 180.77 80
4 01/12/2023 07:38:09 -0.01,-137.31 -0.76,-140.92 410.71 80
5 01/14/2023 07:25:56 -0.01,-137.29 -0.14,-137.96 75.90 80
6 01/16/2023 07:11:03 -0.01,-137.27 0.49,-135.00 258.28 80
7 01/16/2023 19:32:18 0.01,-137.27 0.61,-140.15 327.97 80
8 01/18/2023 19:22:44 0.02,-137.23 0.03,-137.18 5.40 80
9 01/20/2023 19:10:31 0.02,-137.18 -0.64,-134.22 337.05 80
10 01/21/2023 07:31:54 -0.02,-137.16 -0.49,-139.41 255.13 80
